21:21
Airports
History
Links
Donate
Help keep this website running!
PayPal
Bitcoin
This page is community maintained. The information is intended for PC simulator navigation or reference.
Always use approved charts for navigation.
UHMM
Magadan Sokol
Magadan Sokol (UHMM)
Magadan, Magadanskaya oblast, Russian Federation (685918)
(C)
Lat/Lng:59° 54' 39.56" N / 150° 43' 13.58" E
59.910989 / 150.720439
Elevation:574'ft / 175mMSL
ID / ICAO:UHMM
Runways:1
Longest:10-28
Concrete 3,444m / 11,299ft
Controlled:Yes
METAR21:00 GMT 2017-10-21
Altimeter: 30.39
Visibility: 6.2 statute miles
Wind: 0 knots (from 000°)
Temp: -19°c / -2°f
Humidity: 84.1%

METAR: UHMM 212100Z 00000MPS 9999 NSC M19/M21 Q1029 R10/CLRD70 RMK QFE757

(Powered by phpweather)
Airport Radio Frequencies
ATIS: 127.4
Tower: 120.8
Approach: 124, 126.9, 129
Nearby VORs <50NM
Nearby NDBs
Runway 10 / 28
Dimensions:3444 x 59.1m 11299' x 194'ft
Surface:Concrete
Edge Lights:High intensity
Runway 10 [A]Runway 28 [B]
Heading:093°TH 273°TH
Lat:
Lng:
59° 54' 42.7"N
150° 41' 22.59"E
59° 54' 36.42"N
150° 45' 4.57"E
ALS:ALSF-IISALS
TDZ:Yes
User Notes and Comments
59° 54' 39.56" N / 150° 43' 13.58" E
Distance To
Airport ID:
Nearby Airports
(U) Palana 326.3 NM
UHPL E 100°
4 Oymyakon 338.2 NM
UEMJ NW 312°
(C) Ust-Nera 402.8 NM
UEMT NW 322°
(U) Zyryanka 403.0 NM
UESU N
4 Uka 425.1 NM
UHPU ESE 108°
(U) Kozyrevsk 426.1 NM
UHPO SE 128°
(U) Klyuchi 443.5 NM
UHPY SE 124°
VFR Chart
Flight Planning at SkyVector.com